Regional Weather Roundup
Issued by NWS San Diego, CA

Home | Current Version | Previous Version | Text Only | Print | Product List | Glossary On
Versions: 1 2 3 4 5 6 7 8 9 10 11 12 13 14 15 16 17 18 19 20 21 22 23 24 25 26 27 28 29 30 31 32 33 34 35 36 37 38 39 40 41 42 43 44 45 46 47 48 49 50
000
ASUS46 KSGX 290911
RWRSGX

SAN DIEGO HOURLY WEATHER ROUNDUP
NATIONAL WEATHER SERVICE SAN DIEGO CA
200 AM PDT SUN MAR 29 2015

NOTE: "FAIR" INDICATES FEW OR NO CLOUDS BELOW 12,000 FEET WITH NO
SIGNIFICANT WEATHER AND/OR OBSTRUCTIONS TO VISIBILITY.

CAZ042-043-060-061-PZZ750-775-291000-

GREATER SAN DIEGO AREA

CITY           SKY/WX    TMP DP  RH WIND       PRES   REMARKS
LINDBERGH FLD  MOCLDY    63  59  87 NW3       30.06F
POINT LOMA       N/A     59  57  92 W8          N/A
CHULA VISTA      N/A     61  58  92 CALM      29.98F
IMPERIAL BEACH MOCLDY    55  54  96 CALM      30.05F
BROWN FIELD    MOCLDY    60  57  89 CALM      30.05S
MIRAMAR MCAS   MOCLDY    56  51  84 CALM      30.04F
MONTGOMERY FLD MOCLDY    62  58  86 CALM      30.05F

$$

NORTH SAN DIEGO COUNTY

CITY           SKY/WX    TMP DP  RH WIND       PRES   REMARKS
CAMP PENDLETON CLOUDY    58  52  80 NE3       30.04F
OCEANSIDE AP   CLOUDY    58  56  93 CALM      30.03F FOG
VISTA            N/A     57  51  80 CALM      30.03F
CARLSBAD       CLOUDY    61  59  93 SE3       30.04F FOG
DEL MAR          N/A     61  60  96 CALM      30.07S
FALLBROOK        N/A     56  56 100 CALM      30.04F
SAN MARCOS       N/A     60  55  83 CALM      30.02F
POWAY            N/A     55  48  76 CALM      30.06S

$$

EAST SAN DIEGO COUNTY

CITY           SKY/WX    TMP DP  RH WIND       PRES   REMARKS
RAMONA         MOCLDY    50  39  66 CALM      30.07F
SANTEE LAKES     N/A     56  49  78 CALM      30.05F
LA MESA          N/A     61  58  88 CALM      29.98F
DESCANSO N       N/A     53  28  38 CALM      29.95F
MT. LAGUNA OBS   N/A     58  12  16 NW3       29.79F
CAMPO            N/A     47  35  63 NE8       30.09F

$$

ORANGE COUNTY AND THE LOS ANGELES BASIN

CITY           SKY/WX    TMP DP  RH WIND       PRES   REMARKS
JOHN WAYNE AP  CLOUDY    61  58  90 W3        30.04F
LAKE FOREST FR   N/A     59  47  63 CALM      29.93S
SANTA ANA        N/A     60  54  79 CALM      29.99F
HUNTINGTON BCH   N/A     60  59  95 CALM      30.06S
LOS ALAMITOS   FAIR      58  58 100 CALM      30.03F
FULLERTON      PTCLDY    63  58  83 SE3       30.03F
LONG BEACH     PTCLDY    61  57  87 CALM      30.04F
L.A. AP        FOG       57  57 100 NW3       30.04F VSB 1/4
L.A. DOWNTOWN  CLEAR     60  57  89 CALM      30.04S

$$

THE INLAND EMPIRE

CITY           SKY/WX    TMP DP  RH WIND       PRES   REMARKS
CORONA         PTCLDY    52  47  83 CALM      30.05S
CHINO          CLEAR     58  50  75 CALM      30.05F
ONTARIO        PTCLDY    63  45  51 CALM      30.04F
RIVERSIDE AP   PTCLDY    61  43  51 CALM      30.04F
MORENO VALLEY    N/A     62  35  36 CALM      30.04S
MARCH ARB      PTCLDY    51  31  46 CALM      30.06F
HORSETHIEF CYN   N/A     61  30  30 S3        30.00F
MENIFEE          N/A     60  46  60 CALM      30.10F
HEMET EAST       N/A     63  26  25 CALM      30.04F
FRENCH VALLEY  FAIR      57  39  51 CALM      30.06F
TEMECULA         N/A     60  44  55 CALM      30.03F

$$

SAN BERNARDINO AND RIVERSIDE COUNTY MOUNTAINS

CITY           SKY/WX    TMP DP  RH WIND       PRES   REMARKS
BIG BEAR AP    CLEAR     32  16  51 CALM      30.31S
ANGELUS OAKS     N/A     49  17  28 CALM      30.00F

$$

SOUTHERN DESERT INCLUDING THE COACHELLA VALLEY

CITY           SKY/WX    TMP DP  RH WIND       PRES   REMARKS
PALM SPRINGS   PTCLDY    74  38  27 CALM      29.97S
THOUSAND PALMS   N/A     80  32  17 NW14      29.93F
THERMAL        MOCLDY    79  35  20 NW9       29.91S
BLYTHE         PTCLDY    67  32  27 N3        29.94S
IMPERIAL AP    PTCLDY    72  31  22 NW5       29.92F
EL CENTRO NAS  PTCLDY    71  25  17 W7        29.92F
YUMA AZ        PTCLDY    74  36  25 SE5       29.94F

$$

UPPER DESERT

CITY           SKY/WX    TMP DP  RH WIND       PRES   REMARKS
VICTORVILLE AP CLEAR     54  21  28 SW3       30.11F
HESPERIA         N/A     58  30  35 CALM      30.15S
APPLE VALLEY     N/A     56  26  31 CALM      30.15S
PALMDALE       CLEAR     53  24  32 S3        30.10F
LANCASTER      CLEAR     57  38  48 W13       30.09F
EDWARDS AFB    CLEAR     55  38  52 S8        30.07S
DAGGETT        CLEAR     64  23  21 W13       30.06S
29 PALMS N     PTCLDY    64  19  17 W10       30.11S
NEEDLES        CLEAR     69  22  16 W3        29.96F

$$

REGIONAL REPORTS

CITY           SKY/WX    TMP DP  RH WIND       PRES   REMARKS
SANTA BARBARA  CLEAR     55  52  89 NE6       30.03S
SANDBERG       CLEAR     57  37  47 NW13      30.19F
MT. WILSON       N/A     55  19  24 S2          N/A
LAS VEGAS NV   CLEAR     69  19  15 SW9       29.99S
PHOENIX AZ     CLEAR     71  29  21 E3        29.98R
TIJUANA        FOG       61  55  82 NW6       30.07  VSB 1/16
ENSENADA NW      N/A     61  32  33 CALM      30.01F

$$

OFFSHORE ISLANDS

CITY           SKY/WX    TMP DP  RH WIND       PRES   REMARKS
CATALINA ARPT  MOCLDY    67  40  37 S3        30.07F
SAN NICOLAS IS CLEAR    N/A N/A N/A W3        30.04F

$$

MARINE AND OFFSHORE BUOY REPORTS

STATION/POSITION SKY/WX   TEMP    WIND        PRES    SWELL
                          AIR SEA DIR/SP/G            HT/PER/DIR
                          (F)     (DEG/KT/KT) (MB)    (FT/S/D)
TANNER BANKS               60 61  290/ 12/ 14 1017.9F   7/190/16
S CLEMENTE BASIN           61 65  290/  6/  8 1017.3F   7/190/16
SAN NICOLAS IS.               60                N/A     7/190/18
SO. S. ROSA ISLA           59 60  290/ 10/ 12 1016.8F   7/16
W. S. BARBARA CH           57 59  320/ 14/ 16 1016.2F   8/310/10
S. MONICA BASIN            61 64  190/  6/  6 1017.2F   3/160/17
S PEDRO CHANNEL               63                N/A     2/240/13
DANA POINT                    65                N/A     5/200/17
CMP PENDLETON NS              66                N/A     3/220/17
OCEANSIDE OFFSHR              66                N/A     3/200/17
TORREY PINES OTR              66                N/A     5/210/17
MISSION BAY BUOY              66                N/A     3/200/17
POINT LOMA SOUTH              65                N/A     5/190/17

$$



USA.gov is the U.S. government's official web portal to all federal, state and local government web resources and services.